This demonstration page uses our WeatherBlox Daily Observations layout. Learn more.

Left ArrowRight Arrow

Hourly Observations for November 27, 2020

Temp ( °F °C ) Dew Point ( °F °C ) Humidity (%) Winds ( mph kmh ) Pressure ( in mb ) Visibility ( mi km ) Precip ( " mm )
12:51 am 00:51 Clear 40 4.4 15 -9.4 36 36 E 5 7 29.91 1013 10 16 0.00 0.00
1:51 am 01:51 Mostly Clear 39 3.9 16 -8.9 39 39 NE 3 6 29.91 1013 10 16 0.00 0.00
2:51 am 02:51 Clear 39 3.9 16 -8.9 39 39 NE 5 7 29.91 1013 10 16 0.00 0.00
3:51 am 03:51 Mostly Clear 34 1.1 14 -10 44 44 Calm 29.92 1013 10 16 0.00 0.00
4:51 am 04:51 Mostly Cloudy 35 1.7 14 -10 42 42 N 3 6 29.94 1014 10 16 0.00 0.00
5:51 am 05:51 Mostly Cloudy 37 2.8 16 -8.9 42 42 ESE 6 9 29.95 1014 10 16 0.00 0.00
6:51 am 06:51 Cloudy 36 2.2 15 -9.4 42 42 Calm 29.99 1016 10 16 0.00 0.00
7:51 am 07:51 Cloudy 40 4.4 16 -8.9 38 38 Calm 30.02 1017 10 16 0.00 0.00
8:51 am 08:51 Sunny 47 8.3 19 -7.2 33 33 E 8 13 30.02 1017 10 16 0.00 0.00
9:51 am 09:51 Cloudy 50 10 21 -6.1 32 32 WNW 8 13 30.04 1017 10 16 0.00 0.00
10:51 am 10:51 Mostly Sunny 56 13.3 21 -6.1 26 26 WNW 15 24 30.04 1017 10 16 0.00 0.00
11:51 am 11:51 Sunny 58 14.4 18 -7.8 21 21 WNW 14 22 30.04 1017 10 16 0.00 0.00
12:51 pm 12:51 Sunny 58 14.4 16 -8.9 19 19 NW 8 13 30.03 1017 10 16 0.00 0.00
1:51 pm 13:51 Sunny 59 15 14 -10 17 17 W 15 24 30.03 1017 10 16 0.00 0.00
2:51 pm 14:51 Sunny 59 15 14 -10 17 17 WNW 12 19 30.03 1017 10 16 0.00 0.00
3:51 pm 15:51 Mostly Sunny 59 15 18 -7.8 20 20 WNW 14 22 30.05 1018 10 16 0.00 0.00
4:51 pm 16:51 Sunny 55 12.8 24 -4.4 30 30 NW 12 19 30.07 1018 10 16 0.00 0.00
5:51 pm 17:51 Clear 51 10.6 22 -5.6 32 32 NW 9 15 30.09 1019 10 16 0.00 0.00
6:51 pm 18:51 Clear 46 7.8 21 -6.1 37 37 N 7 11 30.12 1020 10 16 0.00 0.00
7:51 pm 19:51 Clear 45 7.2 22 -5.6 40 40 N 6 9 30.13 1020 10 16 0.00 0.00
8:51 pm 20:51 Clear 44 6.7 22 -5.6 41 41 WNW 10 17 30.14 1021 10 16 0.00 0.00
9:51 pm 21:51 Clear 42 5.6 23 -5 47 47 NNE 7 11 30.16 1021 10 16 0.00 0.00
10:51 pm 22:51 Clear 39 3.9 23 -5 53 53 E 3 6 30.15 1021 10 16 0.00 0.00
11:51 pm 23:51 Clear 41 5 25 -3.9 53 53 W 5 7 30.15 1021 10 16 0.00 0.00

Powered by AerisWeather